Moab, UT

12:16 AM MDT on October 21, 2017 (GMT -0600)
Canyonlands

Weather History for KCNY - April, 2013

Change the Weather History Date:

Friday, April 5, 2013

  Actual Average Record
Temperature  
Mean Temperature 60 °F 50 °F  
Max Temperature 75 °F 64 °F 88 °F (1959)
Min Temperature 45 °F 35 °F 22 °F (1945)
Degree Days  
Heating Degree Days 5 15  
Month to date heating degree days 53 79  
Since 1 July heating degree days 5561 5127  
Cooling Degree Days 0 0  
Month to date cooling degree days 0 0  
Year to date cooling degree days 0 0  
Growing Degree Days 12 (Base 50)    
Moisture  
Dew Point 22 °F    
Average Humidity 26    
Maximum Humidity 38    
Minimum Humidity 14    
Precipitation  
Precipitation T in 0.02 in 0.28 in (1942)
Month to date precipitation T 0.10  
Year to date precipitation 0.69 2.03  
Sea Level Pressure  
Sea Level Pressure 29.79 in    
Wind  
Wind Speed 9 mph (West)    
Max Wind Speed 37 mph    
Max Gust Speed 54 mph    
Visibility 10 miles    
Events Rain    
T = Trace of Precipitation, MM = Missing Value Source: NWS Daily Summary

Daily Weather History Graph

Daily Weather History Graph

Search for Another Location

Airport or City:

Trip Planner

Search our weather history database for the weather conditions in past years. The results will help you decide how hot, cold, wet, or windy it might be!

Date:

Astronomy

Apr. 05, 2013 Rise Set
Actual Time 6:57 AM MDT 7:46 PM MDT
Civil Twilight 6:30 AM MDT 8:13 PM MDT
Nautical Twilight 5:58 AM MDT 8:45 PM MDT
Astronomical Twilight 5:25 AM MDT 9:18 PM MDT
Moon 4:03 AM MDT (4/5) 3:16 PM MDT (4/5)
Length of Visible Light 13h 43m
Length of Day
12h 49m
Waning Crescent, 23% of the Moon is Illuminated
Apr 5
Waning Crescent
Apr 10
New
Apr 18
First Quarter
Apr 25
Full
May 2
Last Quarter

Hourly Weather History & Observations

Time (MDT) Temp. Dew Point Humidity Pressure Visibility Wind Dir Wind Speed Gust Speed Precip Events Conditions
12:53 AM 57.0 °F 15.1 °F 19% 29.85 in 10.0 mi ESE 8.1 mph - N/A   Scattered Clouds
1:53 AM 57.9 °F 17.1 °F 20% 29.83 in 10.0 mi SSE 6.9 mph - N/A   Clear
2:53 AM 57.9 °F 17.1 °F 20% 29.81 in 10.0 mi ESE 9.2 mph - N/A   Clear
3:53 AM 59.0 °F 17.1 °F 20% 29.79 in 10.0 mi ESE 5.8 mph - N/A   Clear
4:53 AM 55.0 °F 18.0 °F 23% 29.81 in 10.0 mi NW 8.1 mph - N/A   Scattered Clouds
5:53 AM 55.9 °F 18.0 °F 23% 29.80 in 10.0 mi Calm Calm - N/A   Mostly Cloudy
6:53 AM 53.1 °F 17.1 °F 24% 29.80 in 10.0 mi Calm Calm - N/A   Partly Cloudy
7:53 AM 52.0 °F 19.0 °F 27% 29.82 in 10.0 mi Calm Calm - N/A   Scattered Clouds
8:53 AM 59.0 °F 19.0 °F 21% 29.82 in 10.0 mi Calm Calm - N/A   Clear
9:53 AM 63.0 °F 19.0 °F 18% 29.80 in 10.0 mi Calm Calm - N/A   Overcast
10:53 AM 68.0 °F 19.9 °F 16% 29.78 in 10.0 mi SW 15.0 mph 24.2 mph N/A   Partly Cloudy
11:53 AM 69.1 °F 19.9 °F 15% 29.78 in 10.0 mi SW 12.7 mph 21.9 mph N/A   Partly Cloudy
12:53 PM 73.0 °F 21.0 °F 14% 29.73 in 10.0 mi WSW 20.7 mph 27.6 mph N/A   Partly Cloudy
1:53 PM 73.9 °F 21.0 °F 14% 29.70 in 10.0 mi WSW 17.3 mph 25.3 mph N/A   Scattered Clouds
2:53 PM 72.0 °F 21.0 °F 15% 29.69 in 10.0 mi West 9.2 mph 19.6 mph N/A   Mostly Cloudy
3:46 PM 66.2 °F 26.6 °F 23% 29.82 in 6.0 mi West 21.9 mph 54.1 mph 0.00 in Rain Light Rain
3:53 PM 66.0 °F 28.0 °F 24% 29.72 in 9.0 mi WNW 13.8 mph 43.7 mph 0.00 in Rain Light Rain
4:53 PM 69.1 °F 27.0 °F 21% 29.70 in 10.0 mi NW 24.2 mph 38.0 mph 0.00 in   Mostly Cloudy
5:53 PM 68.0 °F 30.0 °F 24% 29.73 in 10.0 mi WNW 21.9 mph 33.4 mph N/A   Mostly Cloudy
6:53 PM 66.0 °F 30.0 °F 26% 29.75 in 10.0 mi NW 10.4 mph - N/A   Scattered Clouds
7:53 PM 60.1 °F 26.1 °F 27% 29.78 in 10.0 mi NW 3.5 mph - N/A   Clear
8:53 PM 57.0 °F 24.1 °F 28% 29.80 in 10.0 mi West 10.4 mph - N/A   Clear
9:53 PM 54.0 °F 23.0 °F 30% 29.83 in 10.0 mi WNW 9.2 mph - N/A   Clear
10:53 PM 50.0 °F 21.0 °F 32% 29.85 in 10.0 mi WNW 5.8 mph - N/A   Clear
11:53 PM 46.9 °F 23.0 °F 39% 29.86 in 10.0 mi WNW 9.2 mph - N/A   Clear